Flag for Germany Past Weather in Pfaffenhofen an der Ilm, Bavaria, Germany — Yesterday and Last 2 Weeks

Now
37 °F

Chilly.


Feels Like: 34 °F
Forecast: 33 / 57 °F
Wind: 5 mph from Southwest

Location: Ingolstadt Airport

Current Time: Apr 29, 2017 at 7:48:37 am

Latest Report: Apr 29, 2017 at 6:20 am


Visibility: 4 mi

Pressure: 30.07 "Hg

Humidity: 87%

Dew Point: 34 °F

Location of Pfaffenhofen an der IlmLocation

Past Weather in Pfaffenhofen an der Ilm — Graph

°F

Pfaffenhofen an der Ilm Temperature Yesterday

Maximum temperature yesterday: 43 °F (at 10:20 am)
Minimum temperature yesterday: 37 °F (at 1:20 am)
Average temperature yesterday: 41 °F

High & Low Weather Summary for the Past Weeks

 TemperatureHumidityPressure
High61 °F (Apr 24, 6:20 pm)93% (Apr 17, 12:20 am)30.51 "Hg (Apr 17, 12:20 am)
Low25 °F (Apr 21, 5:20 am)31% (Apr 24, 4:20 pm)29.71 "Hg (Apr 25, 5:20 am)
Average42 °F72%30.08 "Hg
* Reported Apr 14 6:20 am — Apr 29 6:20 am, Pfaffenhofen an der Ilm, Weather by CustomWeather, © 2017

Note: Actual official high and low records may vary slightly from our data, if they occured in-between our weather recording intervals... More about our weather records

Advertising

Pfaffenhofen an der Ilm Weather History for the Previous 24 Hours

Scroll right to see more
 ConditionsComfort  
Time TempWeatherWind HumidityBarometerVisibility
6:20 am
Sat, Apr 29
37 °FChilly.5 mph87%30.07 "Hg4 mi
5:20 am37 °FChilly.6 mph93%30.07 "Hg4 mi
4:20 am37 °FChilly.8 mph93%30.07 "Hg4 mi
3:20 am37 °FChilly.10 mph93%30.04 "Hg4 mi
2:20 am36 °FChilly.9 mph93%30.04 "Hg4 mi
1:20 am36 °FChilly.8 mph93%30.04 "Hg4 mi
12:20 am37 °FChilly.8 mph93%30.04 "Hg4 mi
11:20 pm
Fri, Apr 28
39 °FChilly.9 mph87%30.04 "Hg4 mi
10:20 pm39 °FChilly.6 mph87%30.01 "Hg4 mi
9:20 pm39 °FChilly.7 mph93%30.01 "Hg5 mi
8:20 pm41 °FQuite cool.3 mph87%29.98 "Hg5 mi
7:20 pm41 °FQuite cool.6 mph87%29.98 "Hg4 mi
6:20 pm41 °FDrizzle. Broken clouds.3 mph87%29.95 "Hg4 mi
5:20 pm43 °FDrizzle. Broken clouds.8 mph81%29.95 "Hg4 mi
4:20 pm43 °FLight rain. Partly sunny.6 mph81%29.92 "Hg6 mi
3:20 pm43 °FLight rain. Partly sunny.8 mph81%29.92 "HgN/A
2:20 pm43 °FLight rain. Broken clouds.9 mph76%29.89 "HgN/A
1:20 pm43 °FSprinkles. Broken clouds.7 mph81%29.86 "Hg6 mi
12:20 pm43 °FSprinkles. Broken clouds.6 mph81%29.86 "Hg6 mi
11:40 am43 °FSprinkles. Broken clouds.8 mph76%29.86 "Hg5 mi
11:20 am43 °FPartly sunny.10 mph81%29.83 "HgN/A
10:20 am43 °FPartly sunny.8 mph81%29.86 "HgN/A
9:20 am41 °FRain. Partly sunny.9 mph87%29.86 "Hg5 mi
8:20 am39 °FLight rain. Mostly cloudy.5 mph93%29.86 "Hg4 mi
7:20 am39 °FLight rain. Mostly cloudy.6 mph93%29.83 "Hg4 mi
Weather by CustomWeather, © 2017

See weather overviewHow to use our weather pages